| time (UTC) | temp F | wind direction | speed knots | gust knots | rain 1hr in | rain 24hr in | rain mn in | humidity % | barometer mb |
| 20260508102800 | 37 | 186 | 0.9 | 0.9 | 0.00 | 0.08 | 0.08 | 99 | 1009.3 |
| 20260508102258 | 37 | 186 | 0.0 | 0.9 | 0.07 | 0.08 | 0.08 | 99 | 1009.4 |
| 20260508101755 | 37 | 186 | 0.0 | 0.9 | 0.07 | 0.08 | 0.08 | 99 | 1009.2 |
| 20260508101252 | 37 | 186 | 0.9 | 0.9 | 0.00 | 0.07 | 0.07 | 99 | 1009.4 |
| 20260508100749 | 37 | 186 | 0.0 | 0.9 | 0.00 | 0.07 | 0.07 | 99 | 1009.3 |
| 20260508100248 | 37 | 185 | 0.0 | 0.0 | 0.00 | 0.07 | 0.07 | 99 | 1009.1 |
| 20260508095743 | 37 | 185 | 0.0 | 0.0 | 0.00 | 0.07 | 0.07 | 99 | 1009.3 |
| 20260508095241 | 37 | 185 | 0.0 | 0.0 | 0.00 | 0.07 | 0.07 | 99 | 1009.2 |
| 20260508094737 | 37 | 185 | 0.9 | 0.9 | 0.00 | 0.07 | 0.07 | 99 | 1009.1 |
| 20260508094235 | 37 | 185 | 0.9 | 0.9 | 0.00 | 0.07 | 0.07 | 99 | 1009.1 |
| 20260508093732 | 36 | 185 | 0.9 | 1.7 | 0.00 | 0.07 | 0.07 | 99 | 1009.0 |
| 20260508093229 | 36 | 185 | 0.0 | 0.0 | 0.00 | 0.07 | 0.07 | 99 | 1008.7 |
| 20260508092726 | 36 | 185 | 0.0 | 0.0 | 0.00 | 0.07 | 0.07 | 99 | 1008.8 |
| 20260508092224 | 36 | 185 | 0.0 | 0.0 | 0.00 | 0.07 | 0.07 | 99 | 1009.0 |
| 20260508091722 | 36 | 185 | 0.0 | 0.0 | 0.00 | 0.07 | 0.07 | 99 | 1008.7 |
| 20260508091219 | 37 | 185 | 0.0 | 0.0 | 0.00 | 0.07 | 0.07 | 99 | 1008.6 |
| 20260508090717 | 37 | 185 | 0.0 | 0.0 | 0.00 | 0.07 | 0.07 | 99 | 1008.7 |
| 20260508090214 | 38 | 185 | 0.0 | 0.0 | 0.00 | 0.07 | 0.07 | 99 | 1008.7 |
| 20260508085710 | 38 | 185 | 0.0 | 0.9 | 0.00 | 0.07 | 0.07 | 99 | 1009.0 |
| 20260508085207 | 38 | 185 | 0.0 | 0.0 | 0.00 | 0.07 | 0.07 | 99 | 1009.0 |
| 20260508084703 | 38 | 185 | 0.0 | 0.9 | 0.00 | 0.07 | 0.07 | 99 | 1009.0 |
| 20260508084201 | 38 | 185 | 0.0 | 0.9 | 0.00 | 0.07 | 0.07 | 99 | 1008.9 |
| 20260508083658 | 37 | 185 | 0.0 | 0.0 | 0.00 | 0.07 | 0.07 | 99 | 1008.8 |
| 20260508083155 | 37 | 185 | 0.0 | 0.0 | 0.00 | 0.07 | 0.07 | 99 | 1008.6 |
| 20260508082650 | 37 | 185 | 0.0 | 0.0 | 0.00 | 0.07 | 0.07 | 99 | 1008.7 |
| 20260508082148 | 37 | 185 | 0.0 | 0.0 | 0.00 | 0.07 | 0.07 | 99 | 1008.7 |
| 20260508081645 | 37 | 185 | 0.9 | 0.9 | 0.00 | 0.07 | 0.07 | 99 | 1008.5 |
| 20260508081141 | 38 | 185 | 0.0 | 0.9 | 0.00 | 0.07 | 0.07 | 99 | 1008.6 |
| 20260508080638 | 38 | 185 | 0.0 | 0.0 | 0.00 | 0.07 | 0.07 | 99 | 1008.5 |
| 20260508080136 | 38 | 185 | 0.0 | 0.0 | 0.00 | 0.07 | 0.07 | 99 | 1008.7 |
| 20260508075627 | 38 | 186 | 0.0 | 0.0 | 0.00 | 0.07 | 0.07 | 99 | 1008.5 |
| 20260508075124 | 38 | 186 | 0.0 | 0.0 | 0.00 | 0.07 | 0.07 | 99 | 1008.6 |
| 20260508074622 | 38 | 185 | 0.0 | 0.0 | 0.00 | 0.07 | 0.07 | 99 | 1008.6 |
| 20260508074119 | 38 | 185 | 0.0 | 0.0 | 0.00 | 0.07 | 0.07 | 99 | 1008.4 |
| 20260508073616 | 39 | 185 | 0.0 | 0.0 | 0.00 | 0.07 | 0.07 | 99 | 1008.4 |
| 20260508073114 | 39 | 186 | 0.0 | 0.0 | 0.00 | 0.07 | 0.07 | 99 | 1008.5 |
| 20260508072609 | 39 | 185 | 0.0 | 0.0 | 0.00 | 0.07 | 0.07 | 99 | 1008.3 |
| 20260508072106 | 40 | 186 | 0.0 | 0.0 | 0.00 | 0.07 | 0.07 | 99 | 1008.4 |
| 20260508071604 | 40 | 186 | 0.0 | 0.0 | 0.00 | 0.07 | 0.07 | 99 | 1008.6 |
| 20260508071103 | 41 | 186 | 0.0 | 0.0 | 0.00 | 0.07 | 0.07 | 99 | 1008.5 |
| 20260508070559 | 41 | 186 | 0.0 | 0.0 | 0.00 | 0.07 | 0.07 | 99 | 1008.4 |
| 20260508070058 | 41 | 186 | 0.0 | 0.9 | 0.00 | 0.07 | 0.07 | 99 | 1008.7 |
| 20260508065555 | 41 | 186 | 0.9 | 0.9 | 0.00 | 0.07 | 0.07 | 99 | 1008.2 |
| 20260508065053 | 41 | 186 | 0.9 | 0.9 | 0.00 | 0.07 | 0.07 | 99 | 1008.3 |
| 20260508064550 | 41 | 185 | 0.0 | 0.0 | 0.00 | 0.07 | 0.07 | 99 | 1008.3 |
| 20260508064048 | 41 | 185 | 0.9 | 0.9 | 0.00 | 0.07 | 0.07 | 99 | 1008.6 |
| 20260508063545 | 41 | 185 | 0.9 | 0.9 | 0.00 | 0.07 | 0.07 | 99 | 1008.4 |
| 20260508063043 | 41 | 177 | 0.9 | 0.9 | 0.00 | 0.07 | 0.07 | 99 | 1008.4 |
| 20260508062540 | 41 | 177 | 0.0 | 0.0 | 0.00 | 0.07 | 0.07 | 99 | 1008.6 |
| 20260508062037 | 41 | 177 | 0.0 | 0.0 | 0.00 | 0.07 | 0.07 | 99 | 1008.9 |
| 20260508061535 | 41 | 178 | 0.9 | 0.9 | 0.07 | 0.07 | 0.07 | 99 | 1008.9 |
| 20260508061031 | 41 | 170 | 0.9 | 0.9 | 0.07 | 0.07 | 0.07 | 99 | 1009.0 |
| 20260508060528 | 41 | 171 | 0.9 | 0.9 | 0.00 | 0.06 | 0.06 | 99 | 1008.9 |
| 20260508060026 | 41 | 170 | 0.0 | 0.0 | 0.00 | 0.06 | 0.06 | 98 | 1009.0 |
| 20260508055521 | 41 | 170 | 0.0 | 0.9 | 0.00 | 0.06 | 0.06 | 98 | 1008.8 |
| 20260508055018 | 41 | 170 | 0.0 | 0.9 | 0.00 | 0.06 | 0.06 | 98 | 1008.8 |
| 20260508054515 | 41 | 170 | 0.0 | 0.0 | 0.00 | 0.06 | 0.06 | 97 | 1008.6 |
| 20260508054012 | 41 | 170 | 0.0 | 0.0 | 0.00 | 0.06 | 0.06 | 97 | 1009.0 |
| 20260508053509 | 41 | 170 | 0.0 | 0.0 | 0.00 | 0.06 | 0.06 | 96 | 1008.9 |
| 20260508053007 | 41 | 170 | 0.0 | 0.0 | 0.00 | 0.06 | 0.06 | 96 | 1009.1 |
| 20260508052504 | 41 | 170 | 0.0 | 0.0 | 0.00 | 0.06 | 0.06 | 95 | 1009.1 |
| 20260508052000 | 41 | 170 | 0.0 | 0.0 | 0.00 | 0.06 | 0.06 | 95 | 1009.2 |
| 20260508051456 | 41 | 170 | 0.0 | 0.0 | 0.12 | 0.06 | 0.06 | 94 | 1009.3 |
| 20260508050952 | 42 | 172 | 1.7 | 1.7 | 0.24 | 0.06 | 0.06 | 93 | 1009.4 |
| 20260508050449 | 42 | 169 | 0.9 | 0.9 | 0.17 | 0.04 | 0.04 | 93 | 1009.5 |
| 20260508045945 | 43 | 167 | 0.9 | 0.9 | 0.19 | 0.03 | 0.03 | 91 | 1009.0 |
| 20260508045442 | 44 | 168 | 0.9 | 2.6 | 0.07 | 0.01 | 0.01 | 88 | 1009.4 |
| 20260508044940 | 44 | 231 | 1.7 | 2.6 | 0.00 | 0.00 | 0.00 | 85 | 1009.1 |
| 20260508044437 | 45 | 284 | 2.6 | 3.5 | 0.00 | 0.00 | 0.00 | 83 | 1008.8 |
| 20260508043932 | 45 | 201 | 0.9 | 0.9 | 0.00 | 0.00 | 0.00 | 78 | 1008.2 |
| 20260508043430 | 44 | 200 | 0.0 | 0.9 | 0.00 | 0.00 | 0.00 | 77 | 1007.8 |
| 20260508042926 | 45 | 200 | 0.0 | 0.0 | 0.00 | 0.00 | 0.00 | 78 | 1007.6 |
| 20260508042424 | 45 | 200 | 0.0 | 0.9 | 0.00 | 0.00 | 0.00 | 78 | 1007.4 |
| 20260508041920 | 45 | 200 | 0.9 | 0.9 | 0.00 | 0.00 | 0.00 | 79 | 1007.3 |
| 20260508041417 | 45 | 200 | 0.0 | 0.9 | 0.00 | 0.00 | 0.00 | 79 | 1007.3 |
| 20260508040913 | 45 | 200 | 0.0 | 0.9 | 0.00 | 0.00 | 0.00 | 79 | 1006.8 |
| 20260508040410 | 45 | 200 | 0.0 | 0.0 | 0.00 | 0.00 | 0.00 | 80 | 1006.8 |
| 20260508035908 | 45 | 200 | 0.0 | 0.0 | 0.00 | 0.01 | 0.01 | 78 | 1006.9 |
| 20260508035400 | 45 | 201 | 0.0 | 0.0 | 0.00 | 0.01 | 0.01 | 78 | 1007.0 |
| 20260508034856 | 45 | 201 | 0.9 | 0.9 | 0.00 | 0.01 | 0.01 | 80 | 1007.2 |
| 20260508034353 | 45 | 201 | 0.0 | 0.9 | 0.00 | 0.01 | 0.01 | 78 | 1006.9 |
| 20260508033850 | 45 | 201 | 0.9 | 0.9 | 0.00 | 0.01 | 0.01 | 77 | 1006.9 |
| 20260508033349 | 46 | 201 | 0.9 | 0.9 | 0.00 | 0.01 | 0.01 | 72 | 1006.9 |
| 20260508032846 | 47 | 201 | 0.9 | 0.9 | 0.00 | 0.01 | 0.01 | 71 | 1006.9 |
| 20260508032343 | 47 | 89 | 0.9 | 1.7 | 0.00 | 0.01 | 0.01 | 65 | 1006.9 |
| 20260508031840 | 47 | 88 | 0.0 | 0.0 | 0.00 | 0.01 | 0.01 | 65 | 1006.8 |
| 20260508031337 | 46 | 124 | 0.0 | 0.0 | 0.00 | 0.01 | 0.01 | 66 | 1006.8 |
| 20260508030833 | 46 | 124 | 0.0 | 0.0 | 0.00 | 0.01 | 0.01 | 69 | 1006.9 |
| 20260508030330 | 46 | 124 | 0.0 | 0.0 | 0.00 | 0.01 | 0.01 | 71 | 1007.0 |
| 20260508025827 | 47 | 124 | 0.9 | 0.9 | 0.00 | 0.01 | 0.01 | 69 | 1007.0 |
| 20260508025324 | 48 | 124 | 0.0 | 0.0 | 0.00 | 0.01 | 0.01 | 65 | 1007.0 |
| 20260508024821 | 47 | 127 | 0.0 | 0.9 | 0.00 | 0.01 | 0.01 | 64 | 1007.3 |
| 20260508024317 | 47 | 127 | 0.0 | 0.0 | 0.00 | 0.01 | 0.01 | 64 | 1007.2 |
| 20260508023814 | 47 | 54 | 0.0 | 0.0 | 0.00 | 0.01 | 0.01 | 62 | 1007.2 |
| 20260508023311 | 47 | 162 | 0.0 | 0.0 | 0.00 | 0.01 | 0.01 | 64 | 1007.2 |
| 20260508022807 | 47 | 162 | 0.0 | 0.0 | 0.00 | 0.01 | 0.01 | 62 | 1007.0 |
| 20260508022306 | 47 | 162 | 0.0 | 0.0 | 0.00 | 0.01 | 0.01 | 62 | 1007.2 |
| 20260508021801 | 47 | 162 | 0.0 | 0.0 | 0.00 | 0.01 | 0.01 | 63 | 1006.9 |
| 20260508021256 | 47 | 162 | 0.0 | 0.0 | 0.00 | 0.01 | 0.01 | 64 | 1007.2 |
| 20260508020753 | 47 | 162 | 0.9 | 0.9 | 0.00 | 0.01 | 0.01 | 61 | 1007.4 |
| 20260508020251 | 46 | 162 | 0.0 | 0.9 | 0.00 | 0.01 | 0.01 | 63 | 1007.0 |
| 20260508015747 | 46 | 163 | 0.0 | 0.0 | 0.00 | 0.01 | 0.01 | 64 | 1007.2 |
| 20260508015245 | 47 | 163 | 0.0 | 0.0 | 0.00 | 0.01 | 0.01 | 63 | 1007.3 |
| 20260508014741 | 47 | 162 | 0.0 | 0.0 | 0.00 | 0.01 | 0.01 | 63 | 1007.0 |
| 20260508014238 | 47 | 162 | 0.0 | 0.0 | 0.00 | 0.01 | 0.01 | 61 | 1007.2 |
| 20260508013734 | 47 | 162 | 0.0 | 0.0 | 0.00 | 0.01 | 0.01 | 61 | 1006.9 |
| 20260508013231 | 47 | 162 | 0.0 | 0.0 | 0.00 | 0.01 | 0.01 | 62 | 1007.2 |
| 20260508012728 | 47 | 162 | 0.0 | 0.0 | 0.00 | 0.01 | 0.01 | 62 | 1007.3 |
| 20260508012225 | 47 | 162 | 0.0 | 0.0 | 0.00 | 0.01 | 0.01 | 62 | 1007.2 |
| 20260508011723 | 47 | 162 | 0.0 | 0.0 | 0.00 | 0.01 | 0.01 | 62 | 1007.2 |
| 20260508011220 | 47 | 162 | 0.0 | 0.0 | 0.00 | 0.01 | 0.01 | 60 | 1007.0 |
| 20260508010717 | 48 | 162 | 0.0 | 0.0 | 0.00 | 0.01 | 0.01 | 61 | 1006.9 |
| 20260508010215 | 48 | 162 | 0.0 | 0.0 | 0.00 | 0.01 | 0.01 | 59 | 1006.9 |
| 20260508005712 | 48 | 162 | 0.0 | 0.0 | 0.00 | 0.01 | 0.01 | 59 | 1006.9 |
| 20260508005208 | 48 | 162 | 0.0 | 0.9 | 0.00 | 0.01 | 0.01 | 60 | 1006.8 |
| 20260508004704 | 48 | 162 | 0.0 | 0.9 | 0.00 | 0.01 | 0.01 | 58 | 1006.5 |
| 20260508004200 | 48 | 162 | 0.0 | 0.9 | 0.00 | 0.01 | 0.01 | 59 | 1006.4 |
| 20260508003657 | 48 | 162 | 0.0 | 0.0 | 0.00 | 0.01 | 0.01 | 58 | 1006.4 |
| 20260508003155 | 48 | 162 | 0.9 | 0.9 | 0.00 | 0.01 | 0.01 | 60 | 1006.5 |
| 20260508002651 | 48 | 162 | 0.9 | 0.9 | 0.00 | 0.01 | 0.01 | 59 | 1006.4 |
| 20260508002149 | 49 | 162 | 0.0 | 0.9 | 0.00 | 0.01 | 0.01 | 56 | 1006.2 |
| 20260508001644 | 49 | 162 | 0.0 | 0.0 | 0.00 | 0.01 | 0.01 | 56 | 1006.4 |
| 20260508001140 | 49 | 162 | 0.0 | 0.0 | 0.00 | 0.01 | 0.01 | 56 | 1006.3 |
| 20260508000636 | 49 | 162 | 0.0 | 0.0 | 0.00 | 0.01 | 0.01 | 55 | 1006.4 |
| 20260508000134 | 49 | 162 | 0.0 | 0.0 | 0.00 | 0.01 | 0.01 | 57 | 1006.3 |
| 20260507235630 | 50 | 162 | 0.0 | 0.0 | 0.00 | 0.01 | 0.01 | 57 | 1006.1 |
| 20260507235128 | 51 | 162 | 0.0 | 0.0 | 0.00 | 0.01 | 0.01 | 53 | 1006.0 |
| 20260507234624 | 51 | 162 | 0.9 | 0.9 | 0.00 | 0.01 | 0.01 | 53 | 1006.1 |
| 20260507234121 | 51 | 162 | 0.0 | 0.0 | 0.00 | 0.01 | 0.01 | 53 | 1006.1 |
| 20260507233618 | 52 | 162 | 0.0 | 0.0 | 0.00 | 0.01 | 0.01 | 52 | 1005.8 |
| 20260507233116 | 52 | 189 | 0.0 | 0.9 | 0.00 | 0.01 | 0.01 | 52 | 1006.0 |
| 20260507232613 | 52 | 189 | 0.0 | 0.0 | 0.00 | 0.01 | 0.01 | 51 | 1006.2 |
| 20260507232110 | 53 | 189 | 0.0 | 0.9 | 0.00 | 0.01 | 0.01 | 49 | 1006.0 |
| 20260507231606 | 53 | 188 | 0.0 | 0.9 | 0.00 | 0.01 | 0.01 | 48 | 1006.0 |
| 20260507231103 | 53 | 202 | 0.0 | 0.0 | 0.00 | 0.01 | 0.01 | 49 | 1006.0 |
| 20260507230559 | 53 | 203 | 0.0 | 0.0 | 0.00 | 0.01 | 0.01 | 49 | 1006.0 |
| 20260507230056 | 53 | 203 | 0.9 | 0.9 | 0.00 | 0.01 | 0.01 | 55 | 1006.0 |
| 20260507225551 | 53 | 169 | 0.0 | 0.9 | 0.00 | 0.01 | 0.01 | 48 | 1006.0 |
| 20260507225048 | 53 | 173 | 0.0 | 0.9 | 0.00 | 0.01 | 0.01 | 49 | 1005.9 |
| 20260507224543 | 53 | 194 | 0.9 | 0.9 | 0.00 | 0.01 | 0.01 | 48 | 1006.0 |
| 20260507224040 | 54 | 73 | 0.0 | 0.0 | 0.00 | 0.01 | 0.01 | 46 | 1005.9 |
| 20260507223536 | 54 | 175 | 0.0 | 0.0 | 0.00 | 0.01 | 0.01 | 49 | 1005.8 |
| 20260507223034 | 54 | 92 | 0.9 | 1.7 | 0.00 | 0.01 | 0.01 | 48 | 1005.6 |
| 20260507222531 | 54 | 87 | 0.9 | 0.9 | 0.00 | 0.01 | 0.01 | 46 | 1005.6 |
| 20260507222027 | 54 | 104 | 0.9 | 0.9 | 0.00 | 0.01 | 0.01 | 49 | 1005.9 |
| 20260507221523 | 55 | 62 | 0.9 | 1.7 | 0.00 | 0.01 | 0.01 | 47 | 1005.9 |
| 20260507221021 | 55 | 114 | 0.9 | 0.9 | 0.00 | 0.01 | 0.01 | 46 | 1005.8 |
| 20260507220518 | 55 | 66 | 2.6 | 2.6 | 0.00 | 0.01 | 0.01 | 45 | 1005.7 |
| 20260507220015 | 55 | 183 | 0.9 | 0.9 | 0.00 | 0.01 | 0.01 | 46 | 1005.7 |
| 20260507215511 | 54 | 125 | 0.9 | 0.9 | 0.00 | 0.01 | 0.01 | 48 | 1005.9 |
| 20260507215009 | 55 | 201 | 0.0 | 0.9 | 0.00 | 0.01 | 0.01 | 47 | 1005.9 |
| 20260507214506 | 56 | 175 | 0.9 | 0.9 | 0.00 | 0.01 | 0.01 | 45 | 1005.7 |
| 20260507214001 | 56 | 227 | 2.6 | 2.6 | 0.00 | 0.01 | 0.01 | 43 | 1006.0 |
| 20260507213458 | 55 | 209 | 1.7 | 1.7 | 0.00 | 0.01 | 0.01 | 46 | 1005.7 |
| 20260507212955 | 55 | 177 | 2.6 | 3.5 | 0.00 | 0.01 | 0.01 | 47 | 1006.0 |
| 20260507212451 | 55 | 183 | 1.7 | 1.7 | 0.00 | 0.01 | 0.01 | 47 | 1006.0 |
| 20260507211948 | 55 | 184 | 0.9 | 1.7 | 0.00 | 0.01 | 0.01 | 45 | 1005.8 |
| 20260507211444 | 55 | 132 | 1.7 | 1.7 | 0.00 | 0.01 | 0.01 | 47 | 1006.0 |
| 20260507210941 | 55 | 236 | 1.7 | 1.7 | 0.00 | 0.01 | 0.01 | 46 | 1005.9 |
| 20260507210438 | 55 | 85 | 2.6 | 3.5 | 0.00 | 0.01 | 0.01 | 44 | 1006.0 |
| 20260507205934 | 56 | 142 | 0.9 | 0.9 | 0.00 | 0.01 | 0.01 | 44 | 1005.8 |
| 20260507205432 | 58 | 219 | 2.6 | 2.6 | 0.00 | 0.01 | 0.01 | 42 | 1005.6 |
| 20260507204927 | 58 | 199 | 1.7 | 2.6 | 0.00 | 0.01 | 0.01 | 40 | 1005.7 |
| 20260507204419 | 56 | 223 | 3.5 | 5.2 | 0.00 | 0.01 | 0.01 | 41 | 1005.6 |
| 20260507203916 | 56 | 164 | 0.9 | 1.7 | 0.00 | 0.01 | 0.01 | 45 | 1005.5 |
| 20260507203414 | 58 | 320 | 2.6 | 2.6 | 0.00 | 0.01 | 0.01 | 40 | 1005.7 |
| 20260507202910 | 60 | 209 | 3.5 | 6.1 | 0.00 | 0.01 | 0.01 | 40 | 1005.7 |
| 20260507202401 | 57 | 184 | 1.7 | 2.6 | 0.00 | 0.01 | 0.01 | 44 | 1005.9 |
| 20260507201856 | 55 | 95 | 0.9 | 0.9 | 0.00 | 0.01 | 0.01 | 46 | 1005.6 |
| 20260507201352 | 54 | 32 | 3.5 | 3.5 | 0.00 | 0.01 | 0.01 | 45 | 1006.0 |
| 20260507200849 | 55 | 193 | 0.9 | 0.9 | 0.00 | 0.01 | 0.01 | 45 | 1005.9 |
| 20260507200345 | 55 | 136 | 1.7 | 1.7 | 0.00 | 0.01 | 0.01 | 43 | 1005.9 |
| 20260507195841 | 56 | 231 | 0.9 | 1.7 | 0.00 | 0.01 | 0.01 | 43 | 1005.7 |
| 20260507195338 | 56 | 265 | 2.6 | 5.2 | 0.00 | 0.01 | 0.01 | 45 | 1005.7 |
| 20260507194836 | 58 | 204 | 0.9 | 1.7 | 0.00 | 0.01 | 0.01 | 44 | 1005.8 |
| 20260507194332 | 59 | 170 | 2.6 | 3.5 | 0.00 | 0.01 | 0.01 | 39 | 1006.0 |
| 20260507193828 | 59 | 14 | 2.6 | 3.5 | 0.00 | 0.01 | 0.01 | 39 | 1006.1 |
| 20260507193326 | 59 | 160 | 0.9 | 0.9 | 0.00 | 0.01 | 0.01 | 41 | 1006.2 |
| 20260507192821 | 58 | 219 | 0.9 | 0.9 | 0.00 | 0.01 | 0.01 | 40 | 1006.1 |
| 20260507192318 | 59 | 94 | 1.7 | 1.7 | 0.00 | 0.01 | 0.01 | 41 | 1005.9 |
| 20260507191815 | 57 | 55 | 1.7 | 2.6 | 0.00 | 0.01 | 0.01 | 43 | 1006.0 |
| 20260507191311 | 57 | 269 | 3.5 | 3.5 | 0.00 | 0.01 | 0.01 | 43 | 1006.0 |
| 20260507190808 | 55 | 206 | 0.0 | 0.0 | 0.00 | 0.01 | 0.01 | 47 | 1006.3 |
| 20260507190306 | 54 | 177 | 0.9 | 1.7 | 0.00 | 0.01 | 0.01 | 48 | 1006.4 |
| 20260507185804 | 54 | 244 | 2.6 | 2.6 | 0.00 | 0.01 | 0.01 | 47 | 1006.5 |
| 20260507185255 | 55 | 26 | 1.7 | 2.6 | 0.00 | 0.01 | 0.01 | 46 | 1006.7 |
| 20260507184752 | 55 | 222 | 2.6 | 2.6 | 0.00 | 0.01 | 0.01 | 44 | 1006.9 |
| 20260507184250 | 55 | 201 | 0.0 | 0.9 | 0.00 | 0.01 | 0.01 | 43 | 1006.7 |
| 20260507183747 | 56 | 238 | 1.7 | 2.6 | 0.00 | 0.01 | 0.01 | 44 | 1006.7 |
| 20260507183243 | 58 | 250 | 5.2 | 7.0 | 0.00 | 0.01 | 0.01 | 41 | 1006.6 |
| 20260507182741 | 59 | 205 | 2.6 | 3.5 | 0.00 | 0.01 | 0.01 | 42 | 1007.0 |
| 20260507182236 | 59 | 230 | 4.3 | 6.1 | 0.00 | 0.01 | 0.01 | 40 | 1006.9 |
| 20260507181734 | 55 | 213 | 2.6 | 3.5 | 0.00 | 0.01 | 0.01 | 45 | 1006.8 |
| 20260507181230 | 54 | 80 | 0.9 | 1.7 | 0.00 | 0.01 | 0.01 | 43 | 1006.7 |
| 20260507180726 | 55 | 53 | 0.9 | 1.7 | 0.00 | 0.01 | 0.01 | 46 | 1006.9 |
| 20260507180223 | 57 | 168 | 4.3 | 5.2 | 0.00 | 0.01 | 0.01 | 41 | 1007.2 |
| 20260507175719 | 58 | 228 | 2.6 | 2.6 | 0.00 | 0.01 | 0.01 | 42 | 1007.2 |
| 20260507175216 | 57 | 88 | 0.9 | 0.9 | 0.00 | 0.01 | 0.01 | 45 | 1007.0 |
| 20260507174714 | 58 | 5 | 0.9 | 1.7 | 0.00 | 0.01 | 0.01 | 45 | 1007.0 |
| 20260507174211 | 58 | 302 | 0.9 | 0.9 | 0.00 | 0.01 | 0.01 | 44 | 1006.9 |
| 20260507173709 | 58 | 224 | 1.7 | 2.6 | 0.00 | 0.01 | 0.01 | 41 | 1007.3 |
| 20260507173205 | 57 | 116 | 1.7 | 2.6 | 0.00 | 0.01 | 0.01 | 44 | 1007.2 |
| 20260507172702 | 56 | 128 | 1.7 | 1.7 | 0.00 | 0.01 | 0.01 | 46 | 1007.5 |
| 20260507172159 | 58 | 221 | 1.7 | 3.5 | 0.00 | 0.01 | 0.01 | 41 | 1007.4 |
| 20260507171658 | 55 | 82 | 0.0 | 0.9 | 0.00 | 0.01 | 0.01 | 47 | 1007.6 |
| 20260507171156 | 57 | 239 | 5.2 | 7.0 | 0.00 | 0.01 | 0.01 | 42 | 1007.4 |
| 20260507170653 | 56 | 132 | 0.9 | 1.7 | 0.00 | 0.01 | 0.01 | 44 | 1007.6 |
| 20260507170150 | 57 | 216 | 5.2 | 7.8 | 0.00 | 0.01 | 0.01 | 44 | 1007.7 |
| 20260507165646 | 55 | 215 | 1.7 | 3.5 | 0.00 | 0.01 | 0.01 | 50 | 1007.6 |
| 20260507165142 | 57 | 15 | 1.7 | 2.6 | 0.00 | 0.01 | 0.01 | 46 | 1007.9 |
| 20260507164638 | 57 | 229 | 1.7 | 2.6 | 0.00 | 0.01 | 0.01 | 51 | 1007.8 |
| 20260507164135 | 56 | 148 | 2.6 | 2.6 | 0.00 | 0.01 | 0.01 | 42 | 1007.9 |
| 20260507163627 | 54 | 201 | 1.7 | 2.6 | 0.00 | 0.01 | 0.01 | 49 | 1007.9 |
| 20260507163125 | 56 | 74 | 1.7 | 1.7 | 0.00 | 0.01 | 0.01 | 45 | 1008.1 |
| 20260507162620 | 55 | 115 | 2.6 | 5.2 | 0.00 | 0.01 | 0.01 | 47 | 1008.2 |
| 20260507162117 | 56 | 236 | 4.3 | 6.1 | 0.00 | 0.01 | 0.01 | 45 | 1008.0 |
| 20260507161613 | 56 | 254 | 1.7 | 2.6 | 0.00 | 0.01 | 0.01 | 50 | 1007.9 |
| 20260507161110 | 54 | 196 | 0.9 | 0.9 | 0.00 | 0.01 | 0.01 | 53 | 1008.1 |
| 20260507160606 | 54 | 212 | 2.6 | 3.5 | 0.00 | 0.01 | 0.01 | 48 | 1008.3 |
| 20260507155558 | 56 | 52 | 1.7 | 1.7 | 0.00 | 0.01 | 0.01 | 48 | 1008.4 |
| 20260507155055 | 54 | 116 | 0.9 | 0.9 | 0.00 | 0.01 | 0.01 | 50 | 1008.4 |
| 20260507154552 | 54 | 200 | 0.9 | 0.9 | 0.00 | 0.01 | 0.01 | 45 | 1008.6 |
| 20260507154049 | 53 | 241 | 1.7 | 1.7 | 0.00 | 0.01 | 0.01 | 54 | 1008.5 |
| 20260507153546 | 53 | 280 | 1.7 | 2.6 | 0.00 | 0.01 | 0.01 | 56 | 1008.4 |
| 20260507153042 | 52 | 144 | 0.0 | 0.9 | 0.00 | 0.01 | 0.01 | 51 | 1008.7 |
| 20260507152538 | 54 | 224 | 2.6 | 2.6 | 0.00 | 0.01 | 0.01 | 47 | 1008.8 |
| 20260507152034 | 54 | 64 | 3.5 | 5.2 | 0.00 | 0.01 | 0.01 | 48 | 1008.7 |
| 20260507151530 | 54 | 24 | 3.5 | 7.0 | 0.00 | 0.01 | 0.01 | 47 | 1008.9 |
| 20260507151028 | 53 | 237 | 5.2 | 6.1 | 0.00 | 0.01 | 0.01 | 50 | 1009.0 |
| 20260507150524 | 53 | 197 | 1.7 | 2.6 | 0.00 | 0.01 | 0.01 | 49 | 1008.9 |
| 20260507150016 | 53 | 80 | 0.9 | 0.9 | 0.00 | 0.01 | 0.01 | 50 | 1008.9 |
| 20260507145510 | 54 | 117 | 1.7 | 1.7 | 0.00 | 0.01 | 0.01 | 50 | 1008.9 |
| 20260507145008 | 52 | 135 | 1.7 | 2.6 | 0.00 | 0.01 | 0.01 | 49 | 1008.8 |
| 20260507144505 | 53 | 232 | 3.5 | 3.5 | 0.00 | 0.01 | 0.01 | 56 | 1008.8 |
| 20260507144003 | 52 | 187 | 1.7 | 2.6 | 0.00 | 0.01 | 0.01 | 58 | 1009.0 |
| 20260507143500 | 52 | 215 | 4.3 | 6.1 | 0.00 | 0.01 | 0.01 | 50 | 1008.9 |
| 20260507142956 | 51 | 196 | 1.7 | 2.6 | 0.00 | 0.01 | 0.01 | 53 | 1008.9 |
| 20260507142452 | 51 | 43 | 2.6 | 3.5 | 0.00 | 0.01 | 0.01 | 57 | 1009.0 |
| 20260507141949 | 51 | 161 | 0.0 | 0.9 | 0.00 | 0.01 | 0.01 | 51 | 1009.0 |
| 20260507141445 | 51 | 194 | 0.9 | 1.7 | 0.00 | 0.01 | 0.01 | 51 | 1009.2 |
| 20260507140942 | 52 | 150 | 1.7 | 1.7 | 0.00 | 0.01 | 0.01 | 52 | 1009.0 |
| 20260507140438 | 50 | 150 | 0.9 | 1.7 | 0.00 | 0.01 | 0.01 | 58 | 1009.2 |
| 20260507135936 | 50 | 51 | 1.7 | 1.7 | 0.00 | 0.01 | 0.01 | 55 | 1009.4 |
| 20260507135433 | 48 | 214 | 0.0 | 0.9 | 0.00 | 0.01 | 0.01 | 59 | 1009.3 |
| 20260507134930 | 50 | 245 | 1.7 | 2.6 | 0.00 | 0.01 | 0.01 | 57 | 1009.3 |
| 20260507134427 | 49 | 185 | 1.7 | 1.7 | 0.00 | 0.01 | 0.01 | 63 | 1009.3 |
| 20260507133922 | 49 | 19 | 2.6 | 2.6 | 0.00 | 0.01 | 0.01 | 57 | 1009.3 |
| 20260507133418 | 49 | 143 | 2.6 | 3.5 | 0.00 | 0.01 | 0.01 | 55 | 1009.3 |
| 20260507132912 | 48 | 213 | 1.7 | 1.7 | 0.00 | 0.01 | 0.01 | 58 | 1009.3 |
| 20260507132407 | 48 | 84 | 1.7 | 2.6 | 0.00 | 0.01 | 0.01 | 54 | 1009.6 |
| 20260507131906 | 48 | 233 | 2.6 | 3.5 | 0.00 | 0.01 | 0.01 | 57 | 1009.5 |
| 20260507131401 | 47 | 202 | 1.7 | 2.6 | 0.00 | 0.01 | 0.01 | 58 | 1009.3 |
| 20260507130858 | 47 | 141 | 2.6 | 7.8 | 0.00 | 0.01 | 0.01 | 62 | 1009.1 |
| 20260507130354 | 48 | 74 | 2.6 | 3.5 | 0.00 | 0.01 | 0.01 | 58 | 1009.1 |
| 20260507125854 | 47 | 223 | 2.6 | 2.6 | 0.00 | 0.01 | 0.01 | 60 | 1009.3 |
| 20260507125351 | 47 | 252 | 1.7 | 2.6 | 0.00 | 0.01 | 0.01 | 62 | 1009.0 |
| 20260507124849 | 47 | 50 | 1.7 | 2.6 | 0.00 | 0.01 | 0.01 | 62 | 1009.1 |
| 20260507124344 | 46 | 158 | 0.9 | 0.9 | 0.00 | 0.01 | 0.01 | 63 | 1009.1 |
| 20260507123843 | 46 | 83 | 0.0 | 0.9 | 0.00 | 0.01 | 0.01 | 62 | 1009.0 |
| 20260507123340 | 46 | 86 | 2.6 | 5.2 | 0.00 | 0.01 | 0.01 | 65 | 1009.1 |
| 20260507122836 | 45 | 175 | 0.9 | 0.9 | 0.00 | 0.01 | 0.01 | 70 | 1008.8 |
| 20260507122331 | 45 | 182 | 0.9 | 0.9 | 0.00 | 0.01 | 0.01 | 72 | 1008.8 |
| 20260507121828 | 44 | 200 | 0.9 | 0.9 | 0.00 | 0.01 | 0.01 | 71 | 1008.8 |
| 20260507121324 | 44 | 125 | 0.9 | 1.7 | 0.00 | 0.01 | 0.01 | 69 | 1009.0 |
| 20260507120820 | 45 | 104 | 0.0 | 0.0 | 0.05 | 0.01 | 0.01 | 70 | 1008.9 |
| 20260507120317 | 44 | 241 | 4.3 | 6.1 | 0.05 | 0.01 | 0.01 | 69 | 1009.0 |
| 20260507115813 | 44 | 144 | 0.0 | 0.9 | 0.00 | 0.00 | 0.00 | 72 | 1008.8 |
| 20260507115309 | 44 | 160 | 0.9 | 1.7 | 0.00 | 0.00 | 0.00 | 73 | 1008.9 |
| 20260507114804 | 43 | 174 | 0.0 | 0.9 | 0.00 | 0.00 | 0.00 | 75 | 1008.9 |
| 20260507114302 | 42 | 183 | 0.9 | 1.7 | 0.00 | 0.00 | 0.00 | 77 | 1008.7 |
| 20260507113800 | 42 | 240 | 2.6 | 2.6 | 0.00 | 0.00 | 0.00 | 76 | 1008.7 |
| 20260507113256 | 42 | 170 | 0.0 | 0.9 | 0.00 | 0.00 | 0.00 | 78 | 1008.8 |
| 20260507112754 | 42 | 121 | 0.9 | 0.9 | 0.00 | 0.00 | 0.00 | 79 | 1008.5 |
| 20260507112251 | 42 | 182 | 0.0 | 0.0 | 0.00 | 0.00 | 0.00 | 82 | 1008.6 |
| 20260507111749 | 41 | 121 | 0.9 | 0.9 | 0.00 | 0.00 | 0.00 | 83 | 1008.7 |
| 20260507111245 | 41 | 163 | 0.0 | 0.9 | 0.00 | 0.00 | 0.00 | 86 | 1008.7 |
| 20260507110741 | 41 | 160 | 0.9 | 0.9 | 0.00 | 0.00 | 0.00 | 87 | 1008.6 |
| 20260507110238 | 41 | 125 | 0.9 | 1.7 | 0.00 | 0.00 | 0.00 | 86 | 1008.2 |
| 20260507105734 | 41 | 210 | 2.6 | 3.5 | 0.00 | 0.00 | 0.00 | 88 | 1008.2 |
| 20260507105230 | 41 | 169 | 1.7 | 1.7 | 0.00 | 0.00 | 0.00 | 90 | 1008.4 |
| 20260507104728 | 41 | 175 | 0.9 | 0.9 | 0.00 | 0.00 | 0.00 | 90 | 1008.4 |
| 20260507104225 | 41 | 192 | 1.7 | 1.7 | 0.00 | 0.00 | 0.00 | 90 | 1008.3 |
| 20260507103720 | 41 | 71 | 0.9 | 0.9 | 0.00 | 0.00 | 0.00 | 90 | 1008.0 |
| 20260507103217 | 41 | 155 | 0.0 | 0.9 | 0.00 | 0.00 | 0.00 | 91 | 1007.9 |